FW0671 Weather Reports


time (UTC)temp
F
wind
direction
speed
knots
gust
knots
rain 1hr
in
rain 24hr
in
rain mn
in
humidity
%
barometer
mb
20260506113039 54 106 5.2 12.2 0.00 0.00 0.00 62 1009.9
20260506111539 53 114 3.5 15.6 0.00 0.00 0.00 64 1010.0
20260506110030 54 138 4.3 11.3 0.00 0.00 0.00 65 1010.2
20260506104531 53 142 4.3 9.6 0.00 0.00 0.00 66 1010.3
20260506103031 53 132 2.6 8.7 0.00 0.00 0.00 68 1010.3
20260506101527 52 123 2.6 12.2 0.00 0.00 0.00 69 1010.5
20260506100032 52 162 4.3 9.6 0.00 0.00 0.00 70 1010.5
20260506094533 52 150 6.1 9.6 0.00 0.00 0.00 69 1010.7
20260506093040 51 153 2.6 13.0 0.00 0.00 0.00 72 1010.8
20260506091525 50 155 2.6 12.2 0.00 0.00 0.00 74 1010.8
20260506090025 50 137 2.6 8.7 0.00 0.00 0.00 75 1010.8
20260506084523 49 161 0.0 10.4 0.00 0.00 0.00 78 1010.9
20260506083020 48 176 3.5 9.6 0.00 0.00 0.00 85 1011.0
20260506081518 47 146 2.6 7.0 0.00 0.00 0.00 91 1011.1
20260506073013 44 86 0.0 3.5 0.00 0.00 0.00 96 1011.1
20260506071513 44 86 0.9 5.2 0.00 0.00 0.00 96 1010.8
20260506061506 42 98 0.0 1.7 0.00 0.00 0.00 97 1010.3
20260506050113 0 0.0 0.0 0.00 0.00 0.00 1009.7
20260506044559 0 0.0 0.0 0.00 0.00 0.00 1009.7
20260506043050 0 0.0 0.0 0.00 0.00 0.00 1009.8
20260506041553 0 0.0 0.0 0.00 0.00 0.00 1009.4
20260506040146 0 0.0 0.0 0.00 0.00 0.00 1009.5
20260506034542 0 0.0 0.0 0.00 0.00 0.00 1009.3
20260506033039 42 103 0.0 6.1 0.00 0.00 0.00 96 1009.1
20260506031554 42 103 0.9 7.0 0.00 0.00 0.00 96 1009.0
20260506030046 42 95 0.0 6.1 0.00 0.00 0.00 96 1009.0
20260506024537 43 87 0.9 7.8 0.00 0.00 0.00 96 1008.8
20260506023036 43 126 0.9 6.1 0.00 0.00 0.00 96 1009.0
20260506021531 43 138 0.0 3.5 0.00 0.00 0.00 96 1008.7
20260506020031 44 139 0.0 1.7 0.00 0.00 0.00 96 1008.6
20260506014532 44 139 0.0 2.6 0.00 0.00 0.00 96 1008.4
20260506013030 44 139 0.0 0.0 0.00 0.00 0.00 96 1008.5
20260506011530 44 139 0.0 0.9 0.00 0.00 0.00 96 1008.8
20260506010032 44 133 0.0 3.5 0.00 0.00 0.00 96 1008.2
20260506004539 44 132 1.7 6.1 0.00 0.00 0.00 96 1008.6
20260506003027 45 111 0.0 5.2 0.00 0.00 0.00 96 1008.4
20260506001524 45 111 0.0 2.6 0.00 0.00 0.00 96 1009.2
20260506000026 44 111 0.0 0.0 0.00 0.00 0.00 96 1008.6
20260505234600 44 111 0.0 0.0 0.00 0.00 0.00 96 1008.5
20260505233025 44 111 0.0 5.2 0.00 0.00 0.00 96 1009.2
20260505231524 44 111 0.0 1.7 0.00 0.00 0.00 96 1009.0
20260505230027 44 111 0.0 0.0 0.00 0.00 0.00 96 1009.2
20260505224530 45 111 0.0 7.0 0.00 0.00 0.00 96 1009.6
20260505223024 45 80 0.0 4.3 0.00 0.00 0.00 96 1009.5
20260505221522 45 115 0.9 7.0 0.00 0.00 0.00 96 1009.9
20260505220025 45 96 0.0 0.0 0.00 0.00 0.00 96 1010.3
20260505214524 45 96 0.9 5.2 0.00 0.00 0.00 96 1010.0
20260505213023 45 88 0.0 6.1 0.00 0.00 0.00 96 1009.1
20260505211520 46 97 1.7 7.8 0.00 0.00 0.00 96 1009.2
20260505210022 46 114 2.6 9.6 0.00 0.00 0.00 96 1009.7
20260505204525 46 98 0.9 7.0 0.00 0.00 0.00 96 1009.0
20260505203017 47 88 2.6 8.7 0.00 0.00 0.00 96 1009.6
20260505201514 47 109 0.0 7.0 0.00 0.00 0.00 96 1009.7
20260505200021 48 111 1.7 9.6 0.00 0.00 0.00 97 1008.9
20260505194510 48 94 1.7 8.7 0.00 0.00 0.00 97 1009.2
20260505193010 48 117 2.6 8.7 0.00 0.00 0.00 97 1008.8
20260505191505 49 128 0.9 5.2 0.00 0.00 0.00 97 1009.3
20260505190006 50 121 1.7 9.6 0.00 0.00 0.00 97 1008.9
20260505184501 51 114 2.6 9.6 0.00 0.00 0.00 97 1008.0
20260505183100 51 132 5.2 11.3 0.00 0.00 0.00 97 1007.5
20260505181557 51 132 4.3 10.4 0.00 0.00 0.00 97 1007.2
20260505174555 52 101 4.3 15.6 0.00 0.00 0.00 97 1006.9
20260505173052 54 97 5.2 15.6 0.00 0.00 0.00 97 1007.2
20260505171548 55 137 1.7 7.0 0.00 0.00 0.00 97 1006.4
20260505170052 55 144 0.9 8.7 0.00 0.00 0.00 97 1005.8
20260505164557 55 155 3.5 9.6 0.00 0.00 0.00 97 1006.1
20260505163052 55 154 0.0 5.2 0.00 0.00 0.00 97 1006.3
20260505161553 55 154 0.9 7.0 0.00 0.00 0.00 97 1006.2
20260505153150 55 217 0.9 2.6 0.00 0.00 0.00 97 1005.0
20260505151547 55 215 0.0 2.6 0.00 0.00 0.00 97 1004.8
20260505124548 56 159 2.6 13.0 0.00 0.00 0.00 94 1005.6
20260505123040 56 125 3.5 9.6 0.00 0.00 0.00 92 1005.8
20260505121540 59 146 6.1 13.9 0.00 0.00 0.00 90 1005.7
20260505120047 63 101 3.5 7.0 0.00 0.00 0.00 89 1005.0
20260505114535 64 166 0.0 4.3 0.00 0.00 0.00 88 1004.7